Location: Firnhaberau
(48.4049°N, 10.8963°E)
Time: 16:48:58
(UTC+00:00)

Tiangong - Pass Details

Date: 24 June 2021
Orbit: 373 x 386 km, 41.5° (Epoch: 02 August)

Event Time Altitude Azimuth Distance (km) Brightness Sun altitude
Exits shadow 01:57:26 15° 200° (SSW) 1,151 2.9 -9.9°
Maximum altitude 01:58:48 19° 167° (SSE) 994 2.8 -9.8°
Drops below altitude 10° 02:01:05 10° 121° (ESE) 1,394 4.0 -9.5°
Sets 02:03:32 0° 102° (ESE) 2,251 5.3 -9.3°
